User: anonymous   Login
Location: Homewood
(41.1836°S, 175.9581°E)
Time: 08:53:40
(UTC+00:00)
Language:

CZ-2D R/B - Orbit

View from above orbital plane
View from above orbital plane
View from above satellite
View from above satellite

Ground track
Ground track

The orbit data is extracted from the following two-line orbital elements,

1 36597U 10027B   24166.94307856  .00003129  00000-0  27357-3 0  9993
2 36597  98.0438 162.4088 0054376 203.0161 156.8623 14.96416485761093
Epoch (UTC): 14 June 2024 22:38:01
Eccentricity: 0.0054376
inclination: 98.0438°
perigee height: 540 km
apogee height: 616 km
right ascension of ascending node: 162.4088°
argument of perigee: 203.0161°
revolutions per day: 14.96416485
mean anomaly at epoch: 156.8623°
orbit number at epoch: 76109

The dashed part of the orbit path shows where the satellite is in the earth's shadow,  

DLR